Regional Weather Roundup
Issued by NWS

Home | Current Version | Previous Version | Text Only | Print | Product List | Glossary Off
Versions: 1 2 3 4 5 6 7 8 9 10 11 12 13 14 15 16 17 18 19 20 21 22 23 24 25 26 27 28 29 30 31 32 33 34 35 36 37 38 39 40 41 42 43 44 45 46 47 48 49 50

000
ASUS45 KTFX 230510
RWRMT
MONTANA REGIONAL WEATHER ROUNDUP
NATIONAL WEATHER SERVICE GREAT FALLS MT
1100 PM MDT FRI MAY 22 2015

NOTE: "FAIR" INDICATES FEW OR NO CLOUDS BELOW 12000 FEET WITH NO
SIGNIFICANT WEATHER AND/OR OBSTRUCTIONS TO VISIBILITY.

MTZ001>007-043-230600-
WEST OF THE DIVIDE

CITY           SKY/WX    TMP DP  RH WIND       PRES   REMARKS
KALISPELL      PTCLDY    57  35  43 NE8       29.92R
MISSOULA       CLOUDY    65  35  33 SE7       29.91R
BUTTE          CLOUDY    50  41  71 S5        29.99R
MULLAN PASS    CLOUDY    55  31  39 CALM      30.01R
DEER LODGE       N/A     52  37  58 W3        30.00R
EUREKA           N/A     66  30  26 NE3       29.95R
HAMILTON         N/A     54  45  71 E5        29.92R
LIBBY            N/A     61  36  39 SE6       29.92R
RONAN            N/A     66  34  30 W3        29.95R
$$

MTZ008-052>055-230600-
SOUTHWEST MONTANA

CITY           SKY/WX    TMP DP  RH WIND       PRES   REMARKS
BOZEMAN        PTCLDY    52  42  69 CALM      29.95R
DILLON         MOCLDY    49  43  80 SE7       29.95R
W YELLOWSTONE  CLOUDY    46  41  81 N3        29.99S
THREE FORKS      N/A     53  37  54 CALM      29.95S
TWIN BRIDGES     N/A     53  41  64 N12       29.94R
$$

MTZ009-010-012-014-046-048-049-054-230600-
EAST SLOPES AND CENTRAL MONTANA

CITY           SKY/WX    TMP DP  RH WIND       PRES   REMARKS
CUT BANK       CLEAR     52  34  50 NE8       30.00R
GREAT FALLS    PTCLDY    54  48  80 NE10      29.97R
MALMSTROM AFB  MOCLDY    54  46  73 NE15G30   29.98R
HELENA         PTCLDY    56  43  61 CALM      29.94R
CONRAD           N/A     57  45  64 CALM      30.01R
$$

MTZ011-013-016-021-045-047-050-051-230600-
NORTH CENTRAL MONTANA

CITY           SKY/WX    TMP DP  RH WIND       PRES   REMARKS
HAVRE          MOCLDY    57  48  72 E9        29.96S
LEWISTOWN      CLOUDY    52  47  83 E7        29.99R
N BAR RANCH    LGT RAIN  50  48  93 NW6       30.02R
CHINOOK          N/A     61  46  59 E5        29.98R
FORT BENTON      N/A     57  45  62 E10G18    29.99R
$$

MTZ017>020-022>027-061-062-230600-
NORTHEAST MONTANA

CITY           SKY/WX    TMP DP  RH WIND       PRES   REMARKS
GLASGOW        MOCLDY    60  42  51 E9        29.99R
JORDAN           N/A     61  45  55 E8        29.98R
SIDNEY         PTCLDY    57  36  44 CALM      30.05S
WOLF POINT     CLOUDY    64  41  42 SE7       30.01R
MALTA            N/A     56  45  66 CALM      29.95R
PLENTYWOOD       N/A     59  36  41 E9        30.06R
POPLAR           N/A     59  39  47 E7        30.03R
$$

MTZ028>42-056>058-230600-
SOUTHCENTRAL AND SOUTHEAST MONTANA

CITY           SKY/WX    TMP DP  RH WIND       PRES   REMARKS
BAKER          MOCLDY    49  38  65 SE8       30.06S
BILLINGS       CLOUDY    56  45  66 E10       29.95S
LIVINGSTON     CLOUDY    53  45  74 E6        29.96R
MILES CITY     CLOUDY    58  43  57 SE13      29.99S
BIG TIMBER       N/A     52  48  87 CALM      29.99S
FORSYTH          N/A     57  43  58 SE6       29.97S
LAUREL           N/A     57  44  62 NE5       29.94R
ROUNDUP          N/A     58  42  55 E1        29.89R
$$

REGIONAL REPORTS...DAKOTAS

CITY           SKY/WX    TMP DP  RH WIND       PRES   REMARKS
WILLISTON      PTCLDY    60  37  42 SE5       30.07R
MINOT          MOCLDY    59  41  51 SE5       30.08S
DICKINSON      PTCLDY    47  34  60 S10       30.08S
BEACH          FAIR      50  37  62 SE10      30.08S
CROSBY         FAIR      57  37  47 SE10      30.08S
WATFORD CITY   FAIR      54  34  47 SE10      30.06S
BISMARCK       PTCLDY    58  39  49 S3        30.12R
GRAND FORKS    CLEAR     53  43  68 S5        30.11F
FARGO          FAIR      62  39  42 SE8       30.13S
BUFFALO SD       N/A     48  40  73 SE10      30.01F
RAPID CITY     CLOUDY    49  43  80 S10       30.08F
$$

REGIONAL REPORTS...WYOMING/IDAHO/WASHINGTON

CITY           SKY/WX    TMP DP  RH WIND       PRES   REMARKS
GILLETTE       CLOUDY    46  41  82 SE14      30.02F
SHERIDAN       MOCLDY    50  45  83 SE18G33   29.95R
BUFFALO WY     CLOUDY    47  45  93 SE14      30.02R
CODY           CLOUDY    48  46  93 CALM      29.96F
YELLOWSTONE LA   N/A     41  39  93 CALM      30.03S
IDAHO FALLS    CLOUDY    56  48  74 CALM      29.92R
SALMON         CLOUDY    54  46  76 CALM      29.93R
BOISE          CLOUDY    64  49  57 CALM      29.86R
SPOKANE        CLOUDY    62  48  60 SW6       29.87R
$$

REGIONAL REPORTS...ALBERTA

CITY           SKY/WX    TMP DP  RH WIND       PRES   REMARKS
EDMONTON       CLEAR     57  32  38 E2        30.01R
CALGARY        PTCLDY    59  25  27 N3        30.05R
LETHBRIDGE     CLEAR     54  34  47 SE7       29.99R
MEDICINE HAT   CLEAR     57  36  44 E7        30.00R
$$

REGIONAL REPORTS...SASKATCHEWAN

CITY           SKY/WX    TMP DP  RH WIND       PRES   REMARKS
SWIFT CURRENT  PTCLDY    57  32  38 SE9       30.04R
REGINA         PTCLDY    55  36  47 SE9       30.07R
SASKATOON      PTCLDY    61  34  36 S7        30.04S
$$


USA.gov is the U.S. government's official web portal to all federal, state and local government web resources and services.